RH
71 69 69 68 72 74 75 70 66 66 68 56 52 40 39 41 48 60 60 46 39 35 39 40 38 36 36 39 43 42 46 46 48 53 53 54 55 50 49 45 48 49 51 51 51 52 38 25 33 36 30 29 35 39
71 69 78 75 75 79 74 70 69 68 65 64 54 50 43 41 42 43 41 39 37 37 39 39 39 38 38 42 42 46 44 45 47 50 52 53 53 55 51 51 46 48 41 44 41 37 27 29 29 30 33 36 41 45
73 72 78 75 77 80 73 72 71 70 66 57 60 59 56 52 50 46 44 42 38 39 41 43 42 41 41 42 44 43 46 43 44 42 46 49 47 50 51 50 44 41 40 42 40 32 33 35 36 37 41 45 48 51
79 75 80 78 79 81 74 72 72 69 65 60 55 49 49 50 47 43 40 38 36 34 37 45 44 48 48 47 46 46 45 45 45 44 46 45 43 42 45 42 44 41 44 43 45 41 42 41 42 45 48 50 56 62
89 84 84 82 82 83 77 73 72 71 67 62 57 52 49 47 47 46 45 43 41 38 40 44 46 48 51 52 51 51 51 52 52 52 52 51 48 50 50 52 49 45 47 51 47 43 45 44 46 50 55 58 60 61
91 86 84 82 85 85 81 77 73 70 69 67 63 57 53 50 47 45 43 42 42 41 40 46 45 46 46 47 47 47 47 46 47 47 50 51 48 51 57 56 44 41 43 46 48 50 49 51 55 55 55 59 63 69
92 86 81 80 82 83 83 80 77 73 68 66 65 64 62 58 54 50 47 49 50 48 46 52 51 49 48 48 48 50 50 51 52 54 55 53 54 56 59 60 49 59 59 59 59 59 58 57 57 58 64 73 80 80
92 86 80 77 74 71 74 73 72 71 68 67 65 63 63 62 61 57 55 54 54 53 51 55 54 50 51 53 55 54 55 55 57 59 60 62 66 70 71 57 59 59 59 59 60 61 60 61 63 70 79 82 83 86
98 95 92 86 79 75 68 67 69 69 68 66 65 64 63 61 61 61 61 60 57 55 54 54 51 51 53 57 59 60 61 64 64 67 69 72 71 68 60 59 59 59 58 57 61 65 68 73 76 80 84 83 88 98
96 97 95 93 88 83 80 74 72 73 74 74 72 69 67 66 65 63 64 61 61 60 58 55 51 53 51 55 58 61 63 67 67 65 67 66 61 57 60 61 64 68 72 70 73 78 79 81 86 88 91 95 98 87
71 80 91 93 92 91 87 82 76 73 70 70 71 72 70 69 67 66 69 68 68 67 63 62 58 55 56 60 68 74 76 73 71 67 74 73 72 70 71 71 71 70 72 76 78 82 84 87 93 95 97 94 84 79
64 66 65 72 85 91 92 93 92 88 78 72 69 70 70 69 67 68 70 70 68 70 70 70 64 65 70 76 82 84 84 84 83 81 86 78 76 75 77 78 78 78 80 82 85 86 91 94 92 90 84 79 77 72
56 55 57 60 65 72 85 92 94 97 92 86 87 85 82 81 83 84 81 80 80 80 83 86 90 91 94 95 96 97 97 93 89 88 87 83 80 82 85 86 85 86 86 86 88 89 91 87 86 84 78 71 65 63
52 54 54 55 56 58 60 66 81 95 95 98 98 99 96 92 90 91 89 90 89 90 92 92 93 92 95 97 99 99 98 97 96 92 87 87 89 89 89 88 90 90 88 87 86 84 84 82 76 72 68 66 63 58
46 48 50 48 51 53 53 54 63 67 81 95 95 97 95 94 93 92 92 92 91 91 92 93 94 95 95 97 97 97 97 95 93 91 92 91 91 95 95 94 93 89 88 89 87 84 79 76 73 70 66 62 57 51
31 35 35 39 41 41 44 48 51 52 54 62 76 89 93 94 93 93 93 93 93 93 93 94 96 97 97 96 95 94 95 93 93 95 97 97 95 95 97 96 93 94 95 94 92 87 79 74 69 63 56 52 50 48
27 28 28 27 27 28 31 33 35 40 48 53 58 62 65 66 74 81 85 89 90 91 92 93 93 94 96 97 97 98 97 97 98 98 96 97 98 95 92 91 89 86 82 80 76 72 66 61 56 53 51 49 47 45
17 25 25 25 25 24 23 26 29 32 36 41 45 49 50 51 55 58 61 64 65 68 72 75 78 83 88 90 92 95 96 94 93 94 97 97 94 89 85 81 76 73 67 60 55 53 52 51 48 46 45 45 45 48
16 17 18 20 23 24 25 29 31 36 39 42 45 47 48 50 53 54 55 53 51 52 52 57 62 66 70 72 73 76 78 76 77 77 76 74 70 67 62 56 52 48 43 43 43 42 43 47 50 50 51 52 51 52
15 15 15 16 17 23 30 33 35 36 40 42 43 50 50 51 52 52 52 52 51 51 51 52 54 55 54 52 53 55 58 61 59 57 56 54 51 49 48 47 43 42 42 42 43 44 45 47 50 52 55 55 53 47
15 14 15 16 19 23 30 35 37 40 41 43 44 45 45 46 48 50 50 53 55 54 55 55 58 60 60 60 60 61 61 61 61 61 59 54 53 51 47 44 42 41 41 42 43 45 49 51 50 46 44 42 44 44
18 17 16 16 19 25 36 38 42 44 46 48 49 50 52 56 58 60 62 62 59 59 62 65 67 69 70 70 71 70 68 65 59 55 50 49 48 48 46 45 46 48 49 49 48 48 45 45 46 47 47 45 45 45
23 22 22 23 24 27 38 41 49 50 53 52 55 56 57 58 59 60 61 59 60 68 72 72 72 74 77 80 79 76 73 66 58 54 54 56 57 55 53 53 53 53 53 53 53 51 51 51 49 46 45 45 46 46
28 29 30 31 32 37 37 43 49 54 62 67 68 66 62 61 66 70 68 66 72 75 77 77 78 82 82 83 81 79 73 63 61 63 65 64 61 60 61 60 60 60 60 58 54 51 49 47 46 45 46 46 48 50
32 40 39 43 46 48 48 47 50 58 60 70 75 79 81 82 82 79 77 79 84 85 87 88 87 86 82 80 75 71 71 71 70 69 65 64 64 64 64 65 64 59 52 48 46 45 45 44 43 42 41 42 43 44
51 65 67 77 80 78 74 72 72 71 83 87 89 88 84 91 97 95 88 93 93 91 89 88 85 81 78 76 76 77 75 71 66 63 64 65 66 66 63 56 48 46 45 44 41 38 34 31 29 29 30 33 36 40
75 80 86 92 97 96 97 98 98 98 97 98 98 97 98 98 97 97 97 97 96 95 93 91 86 82 79 76 75 73 70 69 69 70 70 68 63 55 48 43 41 39 36 31 27 26 26 27 30 33 37 39 43 47
83 90 92 96 93 92 94 96 97 98 98 98 98 98 98 97 97 97 97 96 95 93 88 82 78 76 76 76 75 76 76 72 69 65 58 51 45 43 41 39 34 28 26 27 29 31 32 34 37 40 44 47 51 55
86 88 89 92 94 93 95 95 96 97 97 97 96 95 94 93 92 92 90 88 87 86 85 83 82 82 82 81 79 76 70 59 49 45 44 44 42 38 32 28 27 28 30 32 35 36 38 41 44 46 50 53 57 59
81 81 83 82 83 85 86 85 88 88 88 88 87 86 85 85 85 85 85 85 85 86 84 83 82 80 72 61 52 47 46 48 49 47 42 36 31 28 28 29 31 33 34 34 35 39 43 45 47 50 54 59 63 66
67 69 71 72 76 76 75 76 74 76 77 77 78 77 77 79 78 78 75 71 67 64 61 56 52 50 48 48 49 50 50 47 41 35 32 30 30 31 32 33 33 34 34 36 40 43 45 46 49 51 56 60 64 69
50 52 55 57 57 58 56 55 53 52 53 52 50 49 49 50 52 51 52 53 53 54 53 52 52 52 53 53 51 49 45 39 34 31 31 32 34 35 34 33 33 34 37 41 45 47 48 49 52 56 60 64 69 75
45 45 46 49 50 50 48 40 40 45 49 49 49 52 55 58 60 60 61 61 61 60 57 54 53 51 50 48 46 42 37 31 29 31 34 35 35 34 34 34 35 38 41 43 46 47 49 52 57 61 64 69 74 79